Location: Alamo Bonito
(32.4662°N, 116.7354°W)
Time: 01:25:39
(UTC+00:00)

Daily predictions for brighter satellites

Satellite Brightness Start Highest point End
(mag) Time Altitude Azimuth Time Altitude Azimuth Time Altitude Azimuth
Meteor 2-4 Rocket 3.9 03:11:22 10° S 03:17:17 88° E 03:23:09 10° N
ASTRO E2 3.8 03:19:31 10° SSW 03:22:03 19° SSE 03:24:38 10° ESE
Cosmos 1697 Rocket 2.7 03:17:02 10° NNW 03:22:39 79° ENE 03:28:14 10° SSE
Okean O Rocket 2.7 03:18:53 10° SE 03:22:40 29° ENE 03:26:27 10° NNE
CSL-04 Rocket 4.1 03:20:33 10° SE 03:25:28 42° ENE 03:30:28 10° N
Cosmos 2195 Rocket 4.5 03:21:32 10° S 03:27:37 80° E 03:33:47 10° N
Cosmos 1674 3.4 03:26:26 10° SSE 03:29:26 28° E 03:32:26 10° NNE
Cosmos 1766 4.3 03:27:38 10° NNE 03:30:49 26° E 03:33:59 10° SE
Cosmos 1666 Rocket 3.6 03:28:47 10° N 03:33:04 59° E 03:37:22 10° SSE
COSMOS 2406 3.3 03:29:41 10° SSW 03:35:26 86° ESE 03:41:13 10° NNE
NOSS 3-4 (A) 4.1 03:30:31 10° NNW 03:37:55 89° SW 03:46:18 10° SSE
NOSS 3-4 (C) 4.1 03:30:34 10° NNW 03:37:57 90° E 03:46:17 10° SSE
CSL-04 Debris 4.3 03:33:04 10° SSE 03:38:25 63° ENE 03:43:45 10° N
SPOT 1/Viking Rocket 3.9 03:34:02 10° S 03:39:06 66° WSW 03:44:12 10° NNW
Cosmos 1092 Rocket 4.0 03:33:03 10° S 03:39:21 82° E 03:45:43 10° N
Cosmos 1980 Rocket 2.6 03:35:04 10° N 03:40:33 49° ENE 03:45:44 11° SE
FALCON 9 R/B 3.1 03:39:01 10° W 03:42:21 32° SSW 03:49:30 11° SE
Resurs 01 Rocket 1.6 03:47:12 10° SSE 03:51:36 89° E 03:56:01 10° NNW
DELTA 2 R/B (1) 4.4 03:47:14 10° WNW 03:52:26 40° SW 03:56:58 13° SSE
OAO 1 Rocket 4.4 03:48:13 10° WNW 03:53:35 82° SSW 03:58:02 15° ESE
USA 234 3.2 03:48:37 10° NE 03:55:10 79° SE 04:01:41 10° SW
Delta 168 4.4 03:51:41 10° WSW 03:56:51 46° S 04:03:26 14° ESE
Terra 3.8 03:54:54 10° E 03:56:59 13° ENE 03:59:04 10° NE
Lacrosse 5 rocket 3.5 03:58:26 10° WNW 04:01:29 20° WSW 04:04:27 10° SSW
Cosmos 1470 3.7 03:59:27 10° NNE 04:02:41 28° E 04:04:12 21° ESE
CZ-4 R/B 3.4 04:01:00 10° SSW 04:04:18 26° W 04:07:39 10° NW
IRIDIUM 103 4.4 03:59:21 10° N 04:04:31 63° E 04:09:14 12° SSE
KORONAS-FOTON 3.6 04:03:01 10° S 04:06:43 81° E 04:10:26 10° N
CZ-4B R/B 3.9 04:06:31 10° S 04:11:36 50° W 04:16:45 10° NNW
Cosmos 1842 3.2 04:08:50 10° S 04:12:28 75° W 04:16:07 10° N
IRIDIUM 106 4.3 04:17:35 10° N 04:22:49 84° W 04:27:28 13° S
IRS-1C Rocket 4.4 04:26:32 27° SE 04:29:07 49° ENE 04:34:09 10° N
In-Cosmos 22 4.2 04:25:10 14° S 04:30:00 68° E 04:35:32 10° NNE
Cosmos 540 Rocket 3.5 04:26:34 10° N 04:31:41 63° ENE 04:34:02 31° SE
Cosmos 2360 Rocket 4.2 04:29:07 10° NNE 04:31:48 13° NE 04:34:00 11° E
Cosmos 1707 3.7 04:33:49 10° SSW 04:37:15 42° W 04:40:42 10° N
Cosmos 968 Rocket 4.1 04:37:09 31° ESE 04:37:47 32° E 04:42:20 10° NE
Okean-O 2.8 04:36:10 24° S 04:38:42 68° WSW 04:43:06 10° NNW
MOS 1 Rocket 4.5 04:38:37 28° ESE 04:40:16 33° ENE 04:45:01 10° N
Cosmos 1741 Rocket 4.1 04:38:46 29° SSE 04:41:12 52° ESE 04:46:19 10° NNE
SL-16 R/B 3.0 04:38:02 10° N 04:43:14 36° ENE 04:45:05 29° ESE
SeaSat 1 3.3 04:42:03 29° E 04:43:38 37° ENE 04:48:07 10° N
Cosmos 2333 Rocket 4.1 04:41:43 10° NNE 04:45:15 16° ENE 04:47:07 14° E
Cosmos 2369 4.2 04:41:35 10° NNW 04:47:11 56° WSW 04:50:32 24° S
USA 245 3.5 04:47:48 42° ENE 04:47:48 42° ENE 04:51:20 10° N
Atlas Centaur 2 3.0 04:43:15 10° W 04:51:25 76° S 04:56:31 26° ESE
Cosmos 1833 4.4 04:50:23 38° SE 04:51:44 46° ESE 04:57:04 10° NE
SPOT 5 2.7 04:53:26 39° S 04:54:56 68° WSW 04:59:15 10° NNW
Tiangong -1.4 04:51:55 10° NW 04:54:54 46° NNE 04:54:54 46° NNE
Cosmos 2228 Rocket 3.3 04:55:59 50° ESE 04:56:19 51° E 05:00:45 10° NNE
Cosmos 381 Rocket 4.4 04:52:21 10° NNW 04:58:43 89° ENE 05:01:23 37° SSE
Okean O Rocket 3.9 04:55:46 10° SW 04:58:53 19° W 05:02:01 10° NW
IRS-1A Rocket 4.1 04:57:30 37° SSE 04:59:46 87° WSW 05:05:17 10° NNW
ASTRO E2 3.8 04:56:51 10° WSW 04:58:37 27° SW 04:58:37 27° SW
MetOp-B 4.3 04:57:48 31° S 05:00:22 67° WSW 05:05:42 10° NNW
Cosmos 1356 Rocket 3.5 05:01:42 57° E 05:01:42 57° E 05:05:40 10° NNE
SL-08 ROCKET BODY 4.4 04:58:26 25° S 05:02:17 86° W 05:08:23 10° N
Cosmos 1400 Rocket 3.2 05:03:49 40° SW 05:04:56 57° W 05:08:44 10° N
Cosmos 1241 Rocket 4.5 05:03:08 40° SSE 05:05:00 54° ESE 05:11:01 10° NE
Cosmos 1869 Rocket 3.5 05:02:10 10° N 05:06:38 83° W 05:07:23 61° S
ERS-1 Rocket 2.9 05:10:39 51° S 05:11:56 80° WSW 05:16:58 10° NNW
ATLAS CENTAUR R/B 2.5 05:11:14 16° WSW 05:13:34 34° WNW 05:16:49 10° N
Meteor 1-12 Rocket 4.4 05:08:29 10° N 05:14:28 65° E 05:15:46 52° SE
S3M 4.0 05:10:48 10° N 05:17:10 85° W 05:19:23 43° S
Cosmos 1300 3.9 05:15:04 10° N 05:17:15 32° NNE 05:17:15 32° NNE
Cosmos 1441 Rocket 4.3 05:16:20 10° NNW 05:19:38 34° W 05:19:50 34° WSW
Cosmos 841 Rocket 3.3 05:16:10 10° NNW 05:21:26 78° ENE 05:22:02 68° SE
Cosmos 1655 Rocket 4.1 05:19:20 35° SSW 05:22:16 80° W 05:28:42 10° N
Meteor 1-22 Rocket 4.3 05:16:46 10° N 05:22:31 80° W 05:24:08 50° S
Spot 2 Rocket 3.4 05:22:35 66° S 05:23:18 85° WSW 05:28:24 10° NNW
Cosmos 1980 Rocket 4.4 05:20:24 10° WNW 05:24:02 18° W 05:27:31 10° SW
Cosmos 2322 Rocket 2.4 05:20:38 10° N 05:26:10 52° ENE 05:26:46 50° E
Aureole 3 4.3 05:27:56 39° NNE 05:27:56 39° NNE 05:30:52 10° NNE
Cosmos 1862 Rocket 3.6 05:32:16 73° NNW 05:32:16 73° NNW 05:36:18 10° N
Terra 2.2 05:33:36 50° WSW 05:34:04 52° W 05:38:39 10° NNW
Meteor 2-10 Rocket 3.5 05:31:36 10° N 05:37:05 77° W 05:37:35 70° SSW
Meteor 1-21 4.4 05:36:19 50° SSW 05:37:48 73° W 05:43:37 10° N
Cosmos 2278 4.1 05:32:28 10° NNW 05:37:59 53° WSW 05:38:57 47° SW
Cosmos 1244 Rocket 4.4 05:41:01 63° ESE 05:41:24 64° E 05:47:36 10° NNE
Landsat 5 4.0 05:38:43 10° N 05:42:09 56° NNW 05:42:09 56° NNW
Okean 3 4.2 05:44:40 49° NNW 05:44:40 49° NNW 05:47:48 10° N
Ariane Rocket 3.5 05:47:41 49° WSW 05:48:04 50° W 05:53:00 10° NNW
Cosmos 2219 Rocket 3.3 05:46:35 10° N 05:51:38 32° ENE 05:51:38 32° ENE
SJ 16-02 2.2 05:53:27 47° NW 05:53:27 47° NW 05:57:09 10° N
Cosmos 1346 Rocket 4.5 05:58:59 10° NNW 06:01:14 31° NW 06:01:14 31° NW
COSMOS 2455 4.0 06:07:48 31° ENE 06:07:48 31° ENE 06:11:12 10° NE
ARIANE 5 R/B 4.4 06:08:40 25° NNE 06:08:40 25° NNE 06:10:54 10° N
RESURS DK-1 4.1 06:04:29 10° NW 06:06:46 29° WNW 06:06:46 29° WNW
CZ-4C R/B 4.1 06:13:08 14° NE 06:13:08 14° NE 06:13:51 10° NE
SL-08 R/B 4.3 06:10:00 86° NE 06:10:00 86° NE 06:15:59 10° N
Cosmos 2360 Rocket 2.4 06:10:41 10° NNW 06:15:45 67° WNW 06:15:45 67° WNW
SeaSat 1 4.3 06:21:45 22° W 06:21:45 22° W 06:24:53 10° NW
ATLAS 2AS CENTAUR R/B 2.5 06:18:15 10° NNW 06:24:53 84° NE 06:24:53 84° NE
SL-16 R/B 3.8 06:22:34 10° NW 06:26:57 25° W 06:26:57 25° W
Cosmos 2333 Rocket 2.7 06:24:16 10° NNW 06:29:07 55° WNW 06:29:07 55° WNW
USA 281 3.4 06:32:33 61° ENE 06:32:36 61° ENE 06:39:03 10° NNW
Atlas Centaur 2 3.6 06:32:41 10° W 06:38:43 43° WSW 06:38:43 43° WSW
Cosmos 2227 Rocket 4.2 06:52:28 17° ENE 06:52:28 17° ENE 06:54:10 10° NE
Cosmos 2237 Rocket 4.2 06:47:17 10° NNE 06:50:56 17° ENE 06:51:07 17° ENE
Cosmos 1745 Rocket 4.2 06:53:20 66° NW 06:53:20 66° NW 06:59:08 10° N
Cosmos 2322 4.4 06:48:04 10° NNW 06:52:24 49° NNE 06:52:24 49° NNE
Cosmos 2297 Rocket 3.1 07:11:25 42° NNE 07:11:25 42° NNE 07:15:06 10° NNE
Cosmos 2322 Rocket 4.3 07:06:14 10° WNW 07:08:34 16° W 07:08:34 16° W
Nadezhda 1 Rocket 4.4 07:03:51 10° NNW 07:09:03 57° NW 07:09:03 57° NW
CENTAUR R/B 3.8 07:20:44 26° ENE 07:20:44 26° ENE 07:23:45 10° NE
ATLAS 2A CENTAUR R/B 4.3 06:47:31 10° WSW 07:22:03 66° S 07:22:17 66° S
Meteor 2-5 Rocket 4.5 07:24:15 53° N 07:24:15 53° N 07:28:39 10° N
COSMOS 2428 3.7 07:29:29 10° NNW 07:33:09 41° NW 07:33:09 41° NW
Cosmos 2219 Rocket 4.0 07:30:38 10° NW 07:33:19 22° WNW 07:33:19 22° WNW
Cosmos 2263 Rocket 4.1 07:45:28 20° ENE 07:45:28 20° ENE 07:47:38 10° NE
COSMOS 2455 4.4 07:50:52 25° WNW 07:51:35 26° NW 07:56:32 10° N
CZ-4C R/B 4.0 07:58:11 18° NW 07:58:11 18° NW 08:01:33 10° N
NOSS 3-2 (A) 4.5 08:06:19 32° NE 08:06:19 32° NE 08:09:24 10° NE
Cosmos 2184 Rocket 4.4 08:07:26 61° N 08:07:26 61° N 08:12:37 10° N
SL-12 R/B(2) 4.1 08:08:53 77° W 08:09:17 78° WNW 08:18:21 10° NNE
Cosmos 2154 Rocket 4.4 08:24:17 59° NNW 08:24:17 59° NNW 08:29:23 10° N
SL-16 R/B 3.5 08:23:06 10° N 08:28:12 33° ENE 08:28:24 33° ENE
Cosmos 2227 Rocket 3.5 08:34:15 33° NW 08:34:15 33° NW 08:38:31 10° N
Cosmos 2237 Rocket 3.5 08:29:48 10° NNW 08:32:55 32° NW 08:32:55 32° NW
IDEFIX/ARIANE 42P 4.3 08:35:00 10° NE 08:38:13 24° ENE 08:38:13 24° ENE
CZ-2D R/B 3.9 08:45:25 10° NE 08:48:55 22° E 08:48:55 22° E
Cosmos 2219 4.2 08:57:02 39° NW 08:57:02 39° NW 09:01:26 10° N
NPP 4.4 09:01:43 10° NNE 09:06:15 45° ENE 09:06:15 45° ENE
CENTAUR R/B 3.9 09:07:50 23° WNW 09:08:50 24° NW 09:14:03 10° N
Cosmos 2341 Rocket 4.0 09:12:42 75° NW 09:12:42 75° NW 09:18:30 10° N
ADEOS II 3.6 09:10:44 10° NE 09:15:01 25° E 09:15:11 25° E
USA 238 DEB 3.8 09:16:15 53° ESE 09:16:15 53° ESE 09:22:10 10° NE
USA 238 3.8 09:16:17 52° ESE 09:16:17 52° ESE 09:22:13 10° NE
Cosmos 1937 Rocket 4.1 09:18:39 51° NNW 09:18:39 51° NNW 09:22:49 10° N
Cosmos 864 Rocket 4.4 09:22:44 83° WNW 09:22:44 83° WNW 09:29:02 10° N
Meteor 2-1 Rocket 4.3 09:19:29 10° N 09:25:02 80° N 09:25:02 80° N
Cosmos 2263 Rocket 3.3 09:27:08 32° NW 09:27:08 32° NW 09:31:44 10° N
Resurs 1-4 Rocket 2.4 09:23:29 10° NNE 09:28:26 59° E 09:28:26 59° E
Cosmos 1821 Rocket 3.8 09:44:40 71° SSE 09:45:20 83° E 09:51:29 10° N
Cosmos 1437 Rocket 4.0 09:47:29 38° NNE 09:47:29 38° NNE 09:50:00 10° NNE
Cosmos 1844 Rocket 2.8 09:45:59 62° SE 09:46:17 63° ESE 09:51:47 10° NNE
Cosmos 2218 Rocket 4.2 09:48:21 51° W 09:48:28 51° W 09:54:29 10° N
ALOS 3.6 09:47:01 10° NE 09:51:01 29° E 09:51:42 28° ESE
Cosmos 2228 3.6 09:55:16 10° N 09:58:31 50° NNW 09:58:31 50° NNW
Cosmos 1680 Rocket 3.3 09:55:03 10° NNW 10:00:15 87° WSW 10:00:26 83° SSW
NOSS 3-2 (C) 4.2 10:00:08 30° WNW 10:00:49 31° NW 10:05:53 10° NNE
Cosmos 2112 Rocket 3.9 09:57:22 10° NNW 10:02:34 82° ENE 10:03:19 65° SE
Cosmos 1818 3.6 09:57:33 10° NNW 10:03:02 76° ENE 10:05:16 36° SE
MSX 4.1 10:02:28 10° N 10:07:59 50° WNW 10:08:36 48° W
COSMOS 2441 4.2 10:03:33 10° N 10:08:21 72° WNW 10:08:25 72° W
USA 267 3.2 10:02:50 10° NE 10:09:23 89° NW 10:11:21 49° SW
SL-16 R/B 3.6 10:07:23 10° NW 10:10:13 23° WNW 10:10:13 23° WNW
Cosmos 1603 4.5 10:11:37 10° N 10:17:13 52° ENE 10:22:45 10° SE
IDEFIX/ARIANE 42P 3.6 10:14:10 10° N 10:18:42 31° WNW 10:18:57 30° WNW
SL-16 R/B 3.1 10:13:12 11° SSE 10:19:08 56° ENE 10:25:13 10° N
CZ-2C R/B 2.5 10:18:44 59° SW 10:19:13 62° W 10:24:30 10° NNW
SEDSat Delta rocket 3.2 10:20:59 52° ESE 10:20:59 52° ESE 10:24:13 10° E
Cosmos 1934 Rocket 4.2 10:20:51 32° SSE 10:23:56 70° E 10:30:17 10° N
CZ-2C R/B 3.4 10:20:10 10° N 10:25:14 47° WNW 10:25:53 44° W
Cosmos 1943 3.0 10:21:22 10° NNW 10:26:58 77° WSW 10:29:23 35° S
CZ-2D R/B 2.8 10:24:41 10° N 10:29:29 36° WNW 10:30:12 34° W
Cosmos 1606 Rocket 3.5 10:27:35 10° N 10:32:02 82° E 10:33:15 47° SSE
Mugunghwa Rocket 4.2 10:30:41 42° SW 10:32:16 51° S 10:38:24 10° ESE
Cosmos 921 Rocket 3.4 10:28:12 10° N 10:32:21 58° ENE 10:34:31 26° SE
FENGYUN 3A 3.9 10:27:55 10° N 10:33:09 54° WNW 10:34:27 43° WSW
ASTEX 1 3.2 10:31:48 44° S 10:33:23 88° W 10:38:16 10° N
Envisat 3.9 10:30:42 10° NNE 10:35:31 43° E 10:38:38 20° SSE
Cosmos 1125 Rocket 3.4 10:38:11 42° SSW 10:40:02 90° WSW 10:45:20 10° NNE
CZ-2C R/B 3.8 10:41:21 10° NE 10:45:24 31° E 10:49:09 12° SSE
Cosmos 1726 Rocket 3.5 10:43:03 10° N 10:47:29 90° WNW 10:49:33 31° S
Cosmos 1812 3.4 10:44:06 10° N 10:47:34 48° E 10:49:38 21° SSE
Cosmos 2058 2.8 10:48:10 40° S 10:49:32 80° E 10:53:36 10° N
Cosmos 494 Rocket 3.9 10:47:24 10° NNW 10:52:39 77° WSW 10:57:06 14° S
Cosmos 2150 Rocket 4.4 10:49:48 24° S 10:52:51 61° ESE 10:58:02 10° NNE
ADEOS II 3.1 10:50:00 10° N 10:54:33 31° WNW 10:56:03 26° W
SAR-Lupe-4 3.7 10:52:52 10° N 10:56:20 52° WNW 10:56:48 48° WSW
YAOGAN 6 4.1 10:55:45 10° NE 10:58:31 27° E 11:00:35 14° SSE
IRAS Rocket 4.3 10:54:51 10° N 11:00:17 64° WNW 11:03:12 28° SW
USA 81 4.0 11:00:30 10° N 11:05:47 83° W 11:10:23 14° S
ATLAS 5 CENTAUR R/B 1.0 11:06:36 37° S 11:07:41 65° ESE 11:10:59 10° NE
UNK 3.6 11:03:41 13° S 11:07:47 80° WSW 11:12:23 10° NNW
Resurs 1-4 Rocket 4.0 11:05:15 10° NW 11:07:55 14° WNW 11:09:29 13° W
GOES 2 Rocket 4.1 11:08:49 25° SSW 11:08:49 25° SSW 11:12:29 10° SE
Iridium 4 Rocket 3.3 11:04:52 10° N 11:09:27 88° E 11:14:11 12° S
Meteor 1-28 Rocket 4.0 11:10:01 28° W 11:10:01 28° W 11:12:58 10° NW
Timation 2 Rocket 4.3 11:08:51 24° SW 11:12:50 55° WNW 11:19:10 10° NNE
Cosmos 1544 2.2 11:13:19 54° WSW 11:13:31 57° W 11:16:05 10° N
NOSS 2-2 (E) 3.2 11:12:35 27° SSW 11:14:23 65° ESE 11:17:33 10° NE
Delta 2 Rocket 3.4 11:18:28 10° WNW 11:22:31 82° NNE 11:26:57 10° ESE
Cosmos 2058 Rocket 3.0 11:21:34 10° NNW 11:25:55 63° W 11:30:13 10° S
Thor Agena Rocket 4.0 11:20:43 10° NNE 11:25:58 64° ESE 11:31:09 10° S
Cosmos 1758 Rocket 3.9 11:21:41 10° S 11:26:05 66° E 11:30:28 10° NNE
ALOS 3.7 11:24:32 10° NNW 11:28:00 21° WNW 11:30:00 16° WSW
NOAA 11 4.3 11:23:27 10° N 11:28:51 62° WNW 11:33:30 14° SSW
NOSS 2-3 (D) 3.0 11:29:16 20° SSW 11:31:44 86° WNW 11:35:27 10° NNE
Cosmos 2298 Rocket 4.3 11:29:42 18° SW 11:33:31 51° WNW 11:38:42 10° N
Cosmos 1500 4.0 11:38:00 10° SSE 11:41:17 44° E 11:44:35 10° NNE
Aurora 2 Rocket 4.5 11:38:45 14° SW 11:42:40 30° SSE 11:48:53 10° ESE
USA 276 4.0 11:41:05 10° S 11:43:22 20° SE 11:45:36 10° E
BREEZE-M DEB (TANK) 4.5 11:24:21 10° NW 11:44:01 72° SW 11:48:48 10° SE
Cosmos 1607 4.0 11:39:58 10° NW 11:46:12 60° WSW 11:52:18 10° SSE
Cosmos 1626 Rocket 4.1 11:44:00 12° SSW 11:47:45 41° W 11:51:56 10° N
NOSS 2-2 (C) 4.4 11:46:58 13° WSW 11:49:12 23° WNW 11:51:48 10° N
Cosmos 2278 Rocket 2.8 11:47:04 10° S 11:52:36 57° ESE 11:58:09 10° NNE
Cosmos 1862 3.1 11:49:32 10° S 11:53:20 87° W 11:57:09 10° N
Cosmos 1271 Rocket 2.5 11:52:41 10° SSW 11:56:15 67° W 11:59:48 10° N
